• In Germany
  • List of Countries
  • For 7 days
  • Water Temperature
  • Satellite Maps
  • Weather Map
  • Weather Widgets
  • user-avatar
    Login

    Hourly Weather Barra

    Today, 20 October, Friday

    Time Temperature Precipitation Wind Pressure Humidity
    00:00 +24°C° 1.1 mm 3 mps 750 mmHg 95%
    01:00 +24°C° 1.1 mm 3 mps 750 mmHg 95%
    02:00 +23°C° 0.8 mm 4 mps 750 mmHg 95%
    03:00 +23°C° 0.8 mm 4 mps 750 mmHg 95%
    04:00 +23°C° 0 mm 4 mps 749 mmHg 95%
    05:00 +23°C° 1.1 mm 4 mps 750 mmHg 95%
    06:00 +23°C° 1.1 mm 4 mps 750 mmHg 94%
    07:00 +25°C° 1.1 mm 4 mps 750 mmHg 93%
    08:00 +25°C° 1 mm 5 mps 751 mmHg 92%
    09:00 +25°C° 1 mm 5 mps 751 mmHg 91%
    10:00 +26°C° 0 mm 5 mps 751 mmHg 89%
    11:00 +26°C° 0.4 mm 5 mps 751 mmHg 86%
    12:00 +27°C° 0.4 mm 5 mps 750 mmHg 83%
    13:00 +27°C° 0.4 mm 5 mps 750 mmHg 80%
    14:00 +27°C° 0.1 mm 5 mps 750 mmHg 79%
    15:00 +28°C° 0.1 mm 5 mps 749 mmHg 78%
    16:00 +27°C° 0 mm 4 mps 749 mmHg 77%
    17:00 +26°C° 0.1 mm 4 mps 749 mmHg 82%
    18:00 +25°C° 0.1 mm 4 mps 749 mmHg 87%
    19:00 +24°C° 0.1 mm 3 mps 750 mmHg 91%
    20:00 +24°C° 0.1 mm 3 mps 750 mmHg 93%
    21:00 +24°C° 0.1 mm 3 mps 750 mmHg 94%
    22:00 +22°C° 0 mm 3 mps 750 mmHg 95%
    23:00 +22°C° 0 mm 3 mps 750 mmHg 96%

    Tomorrow, 21 October, Saturday

    Time Temperature Precipitation Wind Pressure Humidity
    00:00 +23°C° 0 mm 2 mps 750 mmHg 96%
    01:00 +23°C° 0 mm 2 mps 750 mmHg 96%
    02:00 +23°C° 0.1 mm 2 mps 749 mmHg 96%
    03:00 +23°C° 0.1 mm 2 mps 749 mmHg 96%
    04:00 +23°C° 0.1 mm 2 mps 749 mmHg 96%
    05:00 +23°C° 0 mm 2 mps 749 mmHg 94%
    06:00 +24°C° 0 mm 2 mps 749 mmHg 92%
    07:00 +24°C° 0 mm 2 mps 749 mmHg 90%
    08:00 +26°C° 0 mm 2 mps 749 mmHg 80%
    09:00 +28°C° 0 mm 2 mps 749 mmHg 71%
    10:00 +30°C° 0 mm 2 mps 749 mmHg 62%
    11:00 +31°C° 0.1 mm 2 mps 749 mmHg 60%
    12:00 +31°C° 0.1 mm 2 mps 748 mmHg 58%
    13:00 +32°C° 0.1 mm 2 mps 747 mmHg 56%
    14:00 +31°C° 0.2 mm 3 mps 747 mmHg 59%
    15:00 +31°C° 0.2 mm 3 mps 746 mmHg 61%
    16:00 +30°C° 0.2 mm 3 mps 746 mmHg 63%
    17:00 +28°C° 0.3 mm 2 mps 746 mmHg 70%
    18:00 +27°C° 0.3 mm 2 mps 746 mmHg 76%
    19:00 +25°C° 0.3 mm 2 mps 747 mmHg 83%
    20:00 +25°C° 0.5 mm 1 mps 747 mmHg 85%
    21:00 +25°C° 0.5 mm 1 mps 747 mmHg 87%
    22:00 +24°C° 0.5 mm 1 mps 748 mmHg 89%
    23:00 +24°C° 1.9 mm 1 mps 747 mmHg 90%

    Day after tomorrow, 22 October, Sunday

    Time Temperature Precipitation Wind Pressure Humidity
    00:00 +24°C° 1.9 mm 1 mps 747 mmHg 92%
    01:00 +24°C° 1.9 mm 1 mps 747 mmHg 94%
    02:00 +24°C° 0.8 mm 1 mps 746 mmHg 93%
    03:00 +24°C° 0.8 mm 1 mps 746 mmHg 93%
    04:00 +21°C° 0.8 mm 0 mps 746 mmHg 93%
    05:00 +22°C° 0.2 mm 0 mps 746 mmHg 91%
    06:00 +22°C° 0.2 mm 0 mps 747 mmHg 89%
    07:00 +23°C° 0.2 mm 0 mps 747 mmHg 87%
    08:00 +27°C° 0 mm 1 mps 747 mmHg 76%
    09:00 +29°C° 0 mm 1 mps 747 mmHg 66%
    10:00 +31°C° 0 mm 1 mps 748 mmHg 56%
    11:00 +31°C° 0 mm 1 mps 747 mmHg 55%
    12:00 +31°C° 0 mm 2 mps 747 mmHg 54%
    13:00 +32°C° 0 mm 2 mps 746 mmHg 54%
    14:00 +31°C° 0.1 mm 2 mps 746 mmHg 56%
    15:00 +30°C° 0.1 mm 2 mps 745 mmHg 59%
    16:00 +30°C° 0.1 mm 2 mps 745 mmHg 62%
    17:00 +28°C° 0 mm 2 mps 745 mmHg 70%
    18:00 +27°C° 0 mm 2 mps 746 mmHg 78%
    19:00 +25°C° 0 mm 2 mps 746 mmHg 86%
    20:00 +25°C° 0 mm 2 mps 747 mmHg 87%
    21:00 +24°C° 0 mm 2 mps 747 mmHg 89%
    22:00 +24°C° 0 mm 2 mps 748 mmHg 91%
    23:00 +24°C° 0 mm 2 mps 748 mmHg 91%

    23 October, Monday

    Time Temperature Precipitation Wind Pressure Humidity
    00:00 +23°C° 0 mm 2 mps 747 mmHg 92%
    01:00 +23°C° 0 mm 2 mps 747 mmHg 93%
    02:00 +23°C° 0 mm 2 mps 747 mmHg 92%
    03:00 +21°C° 0 mm 2 mps 747 mmHg 92%
    04:00 +22°C° 0 mm 1 mps 747 mmHg 92%
    05:00 +23°C° 0 mm 1 mps 747 mmHg 87%
    06:00 +24°C° 0 mm 1 mps 748 mmHg 83%
    07:00 +24°C° 0 mm 1 mps 748 mmHg 79%
    08:00 +27°C° 0 mm 1 mps 749 mmHg 66%
    09:00 +29°C° 0 mm 1 mps 749 mmHg 54%
    10:00 +32°C° 0 mm 1 mps 749 mmHg 42%
    11:00 +33°C° 0 mm 1 mps 749 mmHg 41%
    12:00 +34°C° 0 mm 2 mps 748 mmHg 39%
    13:00 +35°C° 0 mm 2 mps 748 mmHg 38%
    14:00 +34°C° 0 mm 2 mps 748 mmHg 42%
    15:00 +33°C° 0 mm 3 mps 747 mmHg 47%
    16:00 +31°C° 0 mm 3 mps 747 mmHg 51%
    17:00 +29°C° 0 mm 3 mps 748 mmHg 61%
    18:00 +27°C° 0 mm 3 mps 748 mmHg 71%
    19:00 +25°C° 0 mm 2 mps 749 mmHg 81%
    20:00 +25°C° 0 mm 2 mps 749 mmHg 83%
    21:00 +24°C° 0 mm 2 mps 750 mmHg 86%
    22:00 +24°C° 0 mm 2 mps 751 mmHg 88%
    23:00 +24°C° 0 mm 2 mps 750 mmHg 89%

    24 October, Tuesday

    Time Temperature Precipitation Wind Pressure Humidity
    00:00 +24°C° 0 mm 2 mps 750 mmHg 89%
    01:00 +24°C° 0 mm 2 mps 750 mmHg 89%
    02:00 +23°C° 0.1 mm 2 mps 750 mmHg 90%
    03:00 +23°C° 0.1 mm 2 mps 750 mmHg 91%
    04:00 +23°C° 0.1 mm 2 mps 750 mmHg 93%
    05:00 +24°C° 0.1 mm 2 mps 750 mmHg 90%
    06:00 +24°C° 0.1 mm 3 mps 751 mmHg 87%
    07:00 +25°C° 0.1 mm 3 mps 752 mmHg 84%
    08:00 +26°C° 0.1 mm 3 mps 752 mmHg 76%
    09:00 +28°C° 0.1 mm 3 mps 752 mmHg 67%
    10:00 +29°C° 0.1 mm 3 mps 753 mmHg 58%
    11:00 +30°C° 0 mm 3 mps 752 mmHg 55%
    12:00 +30°C° 0 mm 4 mps 752 mmHg 52%
    13:00 +32°C° 0 mm 4 mps 751 mmHg 49%
    14:00 +30°C° 0 mm 4 mps 751 mmHg 51%
    15:00 +30°C° 0 mm 3 mps 751 mmHg 53%
    16:00 +29°C° 0 mm 3 mps 750 mmHg 55%
    17:00 +28°C° 0 mm 3 mps 751 mmHg 62%
    18:00 +26°C° 0 mm 3 mps 751 mmHg 68%
    19:00 +24°C° 0 mm 2 mps 752 mmHg 75%
    20:00 +24°C° 0 mm 2 mps 752 mmHg 77%
    21:00 +23°C° 0 mm 2 mps 752 mmHg 80%
    22:00 +23°C° 0 mm 2 mps 753 mmHg 82%
    23:00 +23°C° 0 mm 2 mps 752 mmHg 83%

    25 October, Wednesday

    Time Temperature Precipitation Wind Pressure Humidity
    00:00 +21°C° 0 mm 2 mps 752 mmHg 85%
    01:00 +21°C° 0 mm 2 mps 752 mmHg 86%
    02:00 +21°C° 0 mm 2 mps 751 mmHg 87%
    03:00 +21°C° 0 mm 2 mps 751 mmHg 88%
    04:00 +21°C° 0 mm 3 mps 751 mmHg 88%
    05:00 +22°C° 0 mm 3 mps 752 mmHg 85%
    06:00 +22°C° 0 mm 3 mps 752 mmHg 81%
    07:00 +24°C° 0 mm 3 mps 752 mmHg 77%
    08:00 +26°C° 0 mm 3 mps 752 mmHg 69%
    09:00 +28°C° 0 mm 3 mps 752 mmHg 61%
    10:00 +29°C° 0 mm 3 mps 752 mmHg 53%
    11:00 +30°C° 0 mm 3 mps 752 mmHg 50%
    12:00 +30°C° 0 mm 3 mps 751 mmHg 48%
    13:00 +31°C° 0 mm 3 mps 751 mmHg 46%
    14:00 +30°C° 0 mm 3 mps 750 mmHg 47%
    15:00 +30°C° 0 mm 3 mps 750 mmHg 49%
    16:00 +29°C° 0 mm 3 mps 750 mmHg 50%
    17:00 +28°C° 0 mm 3 mps 750 mmHg 58%
    18:00 +26°C° 0 mm 2 mps 751 mmHg 66%
    19:00 +24°C° 0 mm 2 mps 751 mmHg 75%
    20:00 +23°C° 0 mm 2 mps 751 mmHg 78%
    21:00 +23°C° 0 mm 2 mps 752 mmHg 82%
    22:00 +21°C° 0 mm 2 mps 752 mmHg 85%
    23:00 +21°C° 0 mm 2 mps 751 mmHg 87%
    Show more